| time (UTC) | temp C | wind direction | speed KPH | gust KPH | rain 1hr cm | rain 24hr cm | rain mn cm | humidity % | barometer mb |
| 20260504202539 | 25 | 26 | 0.0 | 0.0 | 0.00 | 0.00 | 0.00 | 31 | 1008.6 |
| 20260504202036 | 26 | 194 | 4.8 | 4.8 | 0.00 | 0.00 | 0.00 | 30 | 1009.0 |
| 20260504201533 | 26 | 77 | 4.8 | 4.8 | 0.00 | 0.00 | 0.00 | 30 | 1008.8 |
| 20260504201031 | 25 | 14 | 0.0 | 0.0 | 0.00 | 0.00 | 0.00 | 32 | 1008.8 |
| 20260504200527 | 25 | 299 | 4.8 | 4.8 | 0.00 | 0.00 | 0.00 | 32 | 1008.8 |
| 20260504200024 | 25 | 209 | 6.4 | 11.3 | 0.00 | 0.00 | 0.00 | 31 | 1008.9 |
| 20260504195520 | 25 | 185 | 4.8 | 4.8 | 0.00 | 0.00 | 0.00 | 30 | 1008.8 |
| 20260504195017 | 25 | 0 | 4.8 | 6.4 | 0.00 | 0.00 | 0.00 | 32 | 1009.0 |
| 20260504194513 | 25 | 10 | 4.8 | 4.8 | 0.00 | 0.00 | 0.00 | 31 | 1009.2 |
| 20260504194008 | 25 | 125 | 4.8 | 9.7 | 0.00 | 0.00 | 0.00 | 32 | 1009.2 |
| 20260504193506 | 24 | 137 | 3.2 | 4.8 | 0.00 | 0.00 | 0.00 | 31 | 1009.4 |
| 20260504193004 | 25 | 325 | 4.8 | 9.7 | 0.00 | 0.00 | 0.00 | 31 | 1009.5 |
| 20260504192502 | 25 | 194 | 3.2 | 4.8 | 0.00 | 0.00 | 0.00 | 30 | 1009.6 |
| 20260504192000 | 25 | 69 | 3.2 | 4.8 | 0.00 | 0.00 | 0.00 | 31 | 1009.8 |
| 20260504191458 | 25 | 15 | 4.8 | 4.8 | 0.00 | 0.00 | 0.00 | 29 | 1009.8 |
| 20260504190953 | 25 | 2 | 9.7 | 11.3 | 0.00 | 0.00 | 0.00 | 30 | 1009.8 |
| 20260504190449 | 25 | 354 | 1.6 | 1.6 | 0.00 | 0.00 | 0.00 | 31 | 1009.8 |
| 20260504185946 | 25 | 165 | 4.8 | 6.4 | 0.00 | 0.00 | 0.00 | 31 | 1010.0 |
| 20260504185443 | 25 | 14 | 1.6 | 3.2 | 0.00 | 0.00 | 0.00 | 30 | 1009.9 |
| 20260504184939 | 25 | 210 | 3.2 | 4.8 | 0.00 | 0.00 | 0.00 | 31 | 1010.1 |
| 20260504184434 | 25 | 142 | 1.6 | 3.2 | 0.00 | 0.00 | 0.00 | 30 | 1010.2 |
| 20260504183931 | 24 | 230 | 4.8 | 4.8 | 0.00 | 0.00 | 0.00 | 32 | 1010.3 |
| 20260504183428 | 25 | 334 | 11.3 | 12.9 | 0.00 | 0.00 | 0.00 | 28 | 1010.5 |
| 20260504182926 | 24 | 73 | 1.6 | 1.6 | 0.00 | 0.00 | 0.00 | 30 | 1010.5 |
| 20260504182423 | 24 | 191 | 3.2 | 4.8 | 0.00 | 0.00 | 0.00 | 30 | 1010.4 |
| 20260504181920 | 24 | 84 | 4.8 | 4.8 | 0.00 | 0.00 | 0.00 | 33 | 1010.5 |
| 20260504181417 | 25 | 24 | 1.6 | 1.6 | 0.00 | 0.00 | 0.00 | 30 | 1010.5 |
| 20260504180916 | 24 | 351 | 3.2 | 4.8 | 0.00 | 0.00 | 0.00 | 32 | 1010.6 |
| 20260504180414 | 23 | 2 | 4.8 | 6.4 | 0.00 | 0.00 | 0.00 | 33 | 1010.5 |
| 20260504175912 | 23 | 350 | 0.0 | 1.6 | 0.00 | 0.00 | 0.00 | 34 | 1010.7 |
| 20260504175409 | 24 | 201 | 6.4 | 6.4 | 0.00 | 0.00 | 0.00 | 28 | 1010.9 |
| 20260504174906 | 24 | 12 | 3.2 | 4.8 | 0.00 | 0.00 | 0.00 | 30 | 1010.8 |
| 20260504174404 | 23 | 188 | 6.4 | 9.7 | 0.00 | 0.00 | 0.00 | 29 | 1010.9 |
| 20260504173901 | 23 | 22 | 1.6 | 3.2 | 0.00 | 0.00 | 0.00 | 30 | 1010.9 |
| 20260504173357 | 23 | 211 | 3.2 | 6.4 | 0.00 | 0.00 | 0.00 | 35 | 1011.0 |
| 20260504172854 | 23 | 135 | 4.8 | 9.7 | 0.00 | 0.00 | 0.00 | 31 | 1011.0 |
| 20260504172351 | 23 | 350 | 4.8 | 6.4 | 0.00 | 0.00 | 0.00 | 29 | 1011.0 |
| 20260504171847 | 23 | 291 | 4.8 | 4.8 | 0.00 | 0.00 | 0.00 | 29 | 1011.3 |
| 20260504171344 | 23 | 59 | 1.6 | 1.6 | 0.00 | 0.00 | 0.00 | 30 | 1011.1 |
| 20260504170841 | 23 | 146 | 11.3 | 16.1 | 0.00 | 0.00 | 0.00 | 30 | 1011.4 |
| 20260504170338 | 23 | 137 | 8.0 | 14.5 | 0.00 | 0.00 | 0.00 | 30 | 1011.5 |
| 20260504160256 | 22 | 36 | 1.6 | 1.6 | 0.00 | 0.00 | 0.00 | 32 | 1012.1 |
| 20260504150722 | 21 | 4 | 4.8 | 6.4 | 0.00 | 0.00 | 0.00 | 33 | 1012.7 |
| 20260504150218 | 21 | 130 | 6.4 | 9.7 | 0.00 | 0.00 | 0.00 | 33 | 1012.8 |
| 20260504141148 | 19 | 46 | 0.0 | 1.6 | 0.00 | 0.00 | 0.00 | 38 | 1012.9 |
| 20260504140645 | 18 | 34 | 1.6 | 1.6 | 0.00 | 0.00 | 0.00 | 41 | 1012.7 |
| 20260504140140 | 18 | 356 | 6.4 | 9.7 | 0.00 | 0.00 | 0.00 | 37 | 1012.8 |
| 20260504130608 | 15 | 39 | 1.6 | 1.6 | 0.00 | 0.00 | 0.00 | 47 | 1013.2 |
| 20260504130105 | 15 | 116 | 6.4 | 6.4 | 0.00 | 0.00 | 0.00 | 49 | 1013.2 |
| 20260504110456 | 5 | 30 | 0.0 | 0.0 | 0.00 | 0.00 | 0.00 | 92 | 1014.0 |
| 20260504100418 | 5 | 27 | 0.0 | 0.0 | 0.00 | 0.00 | 0.00 | 91 | 1013.9 |
| 20260504081811 | 4 | 27 | 0.0 | 0.0 | 0.00 | 0.00 | 0.00 | 91 | 1014.6 |
| 20260504081308 | 4 | 27 | 0.0 | 0.0 | 0.00 | 0.00 | 0.00 | 91 | 1014.7 |
| 20260504080804 | 4 | 29 | 0.0 | 0.0 | 0.00 | 0.00 | 0.00 | 91 | 1014.6 |
| 20260504080301 | 4 | 29 | 0.0 | 0.0 | 0.00 | 0.00 | 0.00 | 91 | 1014.6 |
| 20260504070228 | 4 | 29 | 0.0 | 0.0 | 0.00 | 0.00 | 0.00 | 90 | 1014.6 |
| 20260504060149 | 3 | 23 | 0.0 | 1.6 | 0.00 | 0.00 | 0.00 | 91 | 1014.9 |
| 20260504050617 | 3 | 29 | 0.0 | 0.0 | 0.00 | 0.00 | 0.00 | 89 | 1014.9 |
| 20260504050114 | 3 | 27 | 0.0 | 0.0 | 0.00 | 0.00 | 0.00 | 89 | 1014.9 |
| 20260504045611 | 3 | 27 | 0.0 | 1.6 | 0.00 | 0.00 | 0.00 | 89 | 1014.8 |
| 20260504045106 | 3 | 24 | 0.0 | 0.0 | 0.00 | 0.00 | 0.00 | 89 | 1014.8 |
| 20260504044604 | 3 | 28 | 0.0 | 0.0 | 0.00 | 0.00 | 0.00 | 89 | 1014.8 |
| 20260504044100 | 3 | 27 | 0.0 | 0.0 | 0.00 | 0.00 | 0.00 | 89 | 1014.7 |
| 20260504043558 | 3 | 25 | 0.0 | 0.0 | 0.00 | 0.00 | 0.00 | 88 | 1014.8 |
| 20260504043055 | 3 | 25 | 0.0 | 1.6 | 0.00 | 0.00 | 0.00 | 88 | 1014.7 |
| 20260504042552 | 3 | 27 | 0.0 | 0.0 | 0.00 | 0.00 | 0.00 | 88 | 1015.0 |
| 20260504042049 | 3 | 26 | 0.0 | 0.0 | 0.00 | 0.00 | 0.00 | 87 | 1015.0 |
| 20260504041544 | 3 | 26 | 0.0 | 0.0 | 0.00 | 0.00 | 0.00 | 87 | 1014.7 |
| 20260504041041 | 3 | 33 | 0.0 | 0.0 | 0.00 | 0.00 | 0.00 | 86 | 1014.8 |
| 20260504040539 | 4 | 33 | 0.0 | 0.0 | 0.00 | 0.00 | 0.00 | 85 | 1014.9 |
| 20260504040035 | 4 | 33 | 0.0 | 0.0 | 0.00 | 0.00 | 0.00 | 85 | 1014.8 |
| 20260504035532 | 4 | 33 | 0.0 | 0.0 | 0.00 | 0.00 | 0.00 | 85 | 1014.9 |
| 20260504035028 | 4 | 33 | 0.0 | 0.0 | 0.00 | 0.00 | 0.00 | 84 | 1014.7 |
| 20260504034526 | 4 | 33 | 0.0 | 0.0 | 0.00 | 0.00 | 0.00 | 83 | 1014.4 |
| 20260504034023 | 4 | 33 | 0.0 | 0.0 | 0.00 | 0.00 | 0.00 | 82 | 1014.7 |
| 20260504033521 | 4 | 33 | 0.0 | 0.0 | 0.00 | 0.00 | 0.00 | 82 | 1014.6 |
| 20260504033018 | 4 | 33 | 0.0 | 0.0 | 0.00 | 0.00 | 0.00 | 82 | 1014.3 |
| 20260504032515 | 4 | 34 | 0.0 | 0.0 | 0.00 | 0.00 | 0.00 | 81 | 1014.2 |
| 20260504032012 | 4 | 33 | 0.0 | 0.0 | 0.00 | 0.00 | 0.00 | 80 | 1014.2 |
| 20260504031509 | 5 | 33 | 0.0 | 0.0 | 0.00 | 0.00 | 0.00 | 80 | 1014.2 |
| 20260504031005 | 5 | 33 | 0.0 | 0.0 | 0.00 | 0.00 | 0.00 | 78 | 1014.2 |
| 20260504030502 | 5 | 33 | 0.0 | 0.0 | 0.00 | 0.00 | 0.00 | 77 | 1014.2 |
| 20260504025958 | 5 | 33 | 0.0 | 0.0 | 0.00 | 0.00 | 0.00 | 77 | 1014.2 |
| 20260504025455 | 5 | 33 | 0.0 | 0.0 | 0.00 | 0.00 | 0.00 | 77 | 1014.1 |
| 20260504024952 | 5 | 33 | 0.0 | 0.0 | 0.00 | 0.00 | 0.00 | 76 | 1014.1 |
| 20260504024449 | 5 | 33 | 0.0 | 0.0 | 0.00 | 0.00 | 0.00 | 75 | 1014.1 |
| 20260504023946 | 5 | 33 | 0.0 | 0.0 | 0.00 | 0.00 | 0.00 | 74 | 1014.1 |
| 20260504023443 | 6 | 33 | 0.0 | 0.0 | 0.00 | 0.00 | 0.00 | 74 | 1014.1 |
| 20260504022938 | 6 | 33 | 0.0 | 0.0 | 0.00 | 0.00 | 0.00 | 73 | 1014.0 |
| 20260504022435 | 6 | 33 | 0.0 | 0.0 | 0.00 | 0.00 | 0.00 | 72 | 1014.1 |
| 20260504021931 | 6 | 33 | 0.0 | 0.0 | 0.00 | 0.00 | 0.00 | 72 | 1014.0 |
| 20260504021429 | 6 | 33 | 0.0 | 0.0 | 0.00 | 0.00 | 0.00 | 70 | 1014.0 |
| 20260504020926 | 6 | 33 | 0.0 | 0.0 | 0.00 | 0.00 | 0.00 | 69 | 1014.2 |
| 20260504020422 | 6 | 34 | 0.0 | 0.0 | 0.00 | 0.00 | 0.00 | 69 | 1014.2 |
| 20260504015919 | 6 | 33 | 0.0 | 0.0 | 0.00 | 0.00 | 0.00 | 69 | 1013.9 |
| 20260504015415 | 6 | 33 | 0.0 | 0.0 | 0.00 | 0.00 | 0.00 | 67 | 1014.1 |
| 20260504014911 | 7 | 33 | 0.0 | 0.0 | 0.00 | 0.00 | 0.00 | 66 | 1014.0 |
| 20260504014407 | 7 | 33 | 0.0 | 0.0 | 0.00 | 0.00 | 0.00 | 65 | 1013.9 |
| 20260504013904 | 7 | 33 | 0.0 | 0.0 | 0.00 | 0.00 | 0.00 | 64 | 1014.0 |
| 20260504013403 | 7 | 34 | 0.0 | 0.0 | 0.00 | 0.00 | 0.00 | 65 | 1014.0 |
| 20260504012859 | 7 | 35 | 0.0 | 0.0 | 0.00 | 0.00 | 0.00 | 63 | 1013.9 |
| 20260504012357 | 8 | 31 | 0.0 | 0.0 | 0.00 | 0.00 | 0.00 | 61 | 1013.8 |
| 20260504011854 | 8 | 31 | 0.0 | 0.0 | 0.00 | 0.00 | 0.00 | 61 | 1013.8 |
| 20260504011350 | 8 | 29 | 0.0 | 0.0 | 0.00 | 0.00 | 0.00 | 60 | 1013.8 |
| 20260504010846 | 8 | 31 | 0.0 | 0.0 | 0.00 | 0.00 | 0.00 | 58 | 1013.6 |
| 20260504010342 | 8 | 32 | 0.0 | 0.0 | 0.00 | 0.00 | 0.00 | 57 | 1013.5 |
| 20260504005839 | 8 | 33 | 0.0 | 0.0 | 0.00 | 0.00 | 0.00 | 57 | 1013.6 |
| 20260504005336 | 9 | 34 | 0.0 | 0.0 | 0.00 | 0.00 | 0.00 | 55 | 1013.7 |
| 20260504004833 | 9 | 34 | 0.0 | 0.0 | 0.00 | 0.00 | 0.00 | 54 | 1013.6 |
| 20260504004331 | 9 | 33 | 0.0 | 0.0 | 0.00 | 0.00 | 0.00 | 54 | 1013.3 |
| 20260504003827 | 10 | 32 | 0.0 | 0.0 | 0.00 | 0.00 | 0.00 | 51 | 1013.3 |
| 20260504003324 | 10 | 32 | 0.0 | 0.0 | 0.00 | 0.00 | 0.00 | 51 | 1013.4 |
| 20260504002821 | 10 | 33 | 0.0 | 0.0 | 0.00 | 0.00 | 0.00 | 49 | 1013.4 |
| 20260504002317 | 11 | 33 | 0.0 | 0.0 | 0.00 | 0.00 | 0.00 | 47 | 1013.2 |
| 20260504001815 | 11 | 34 | 0.0 | 0.0 | 0.00 | 0.00 | 0.00 | 45 | 1013.2 |
| 20260504001312 | 11 | 33 | 0.0 | 0.0 | 0.00 | 0.00 | 0.00 | 43 | 1013.4 |
| 20260504000809 | 12 | 35 | 0.0 | 1.6 | 0.00 | 0.00 | 0.00 | 43 | 1013.2 |
| 20260504000306 | 12 | 33 | 0.0 | 0.0 | 0.00 | 0.00 | 0.00 | 42 | 1013.0 |
| 20260503235804 | 12 | 32 | 0.0 | 0.0 | 0.00 | 0.00 | 0.00 | 40 | 1013.0 |
| 20260503235301 | 13 | 32 | 0.0 | 0.0 | 0.00 | 0.00 | 0.00 | 39 | 1012.9 |
| 20260503234759 | 13 | 31 | 0.0 | 0.0 | 0.00 | 0.00 | 0.00 | 36 | 1012.8 |
| 20260503234256 | 14 | 31 | 0.0 | 0.0 | 0.00 | 0.00 | 0.00 | 38 | 1012.9 |
| 20260503233754 | 15 | 30 | 0.0 | 0.0 | 0.00 | 0.00 | 0.00 | 37 | 1012.7 |
| 20260503233249 | 15 | 29 | 0.0 | 0.0 | 0.00 | 0.00 | 0.00 | 36 | 1012.8 |
| 20260503232746 | 15 | 17 | 1.6 | 3.2 | 0.00 | 0.00 | 0.00 | 32 | 1012.7 |
| 20260503232243 | 15 | 24 | 1.6 | 1.6 | 0.00 | 0.00 | 0.00 | 32 | 1012.6 |
| 20260503231741 | 16 | 9 | 1.6 | 3.2 | 0.00 | 0.00 | 0.00 | 31 | 1012.5 |
| 20260503231238 | 16 | 83 | 3.2 | 4.8 | 0.00 | 0.00 | 0.00 | 31 | 1012.5 |
| 20260503230734 | 16 | 22 | 0.0 | 1.6 | 0.00 | 0.00 | 0.00 | 31 | 1012.5 |
| 20260503230232 | 16 | 39 | 1.6 | 1.6 | 0.00 | 0.00 | 0.00 | 30 | 1012.5 |
| 20260503225729 | 16 | 6 | 1.6 | 3.2 | 0.00 | 0.00 | 0.00 | 30 | 1012.7 |
| 20260503225229 | 16 | 24 | 0.0 | 0.0 | 0.00 | 0.00 | 0.00 | 31 | 1012.5 |
| 20260503224726 | 16 | 22 | 1.6 | 1.6 | 0.00 | 0.00 | 0.00 | 29 | 1012.6 |
| 20260503224224 | 16 | 347 | 0.0 | 1.6 | 0.00 | 0.00 | 0.00 | 29 | 1012.6 |
| 20260503223721 | 16 | 149 | 1.6 | 3.2 | 0.00 | 0.00 | 0.00 | 31 | 1012.5 |
| 20260503223219 | 16 | 358 | 6.4 | 11.3 | 0.00 | 0.00 | 0.00 | 30 | 1012.5 |
| 20260503222715 | 16 | 351 | 4.8 | 4.8 | 0.00 | 0.00 | 0.00 | 28 | 1012.7 |
| 20260503222213 | 17 | 59 | 3.2 | 4.8 | 0.00 | 0.00 | 0.00 | 27 | 1012.6 |
| 20260503221711 | 17 | 62 | 3.2 | 9.7 | 0.00 | 0.00 | 0.00 | 27 | 1012.7 |
| 20260503221209 | 17 | 1 | 6.4 | 9.7 | 0.00 | 0.00 | 0.00 | 28 | 1012.6 |
| 20260503220705 | 17 | 2 | 3.2 | 4.8 | 0.00 | 0.00 | 0.00 | 27 | 1012.7 |
| 20260503220201 | 17 | 325 | 6.4 | 6.4 | 0.00 | 0.00 | 0.00 | 27 | 1012.7 |
| 20260503215658 | 17 | 58 | 1.6 | 1.6 | 0.00 | 0.00 | 0.00 | 28 | 1012.8 |
| 20260503215155 | 17 | 357 | 3.2 | 6.4 | 0.00 | 0.00 | 0.00 | 27 | 1012.8 |
| 20260503214649 | 17 | 335 | 1.6 | 3.2 | 0.00 | 0.00 | 0.00 | 27 | 1012.6 |
| 20260503214144 | 17 | 4 | 11.3 | 12.9 | 0.00 | 0.00 | 0.00 | 27 | 1012.5 |
| 20260503213643 | 17 | 15 | 4.8 | 6.4 | 0.00 | 0.00 | 0.00 | 28 | 1012.6 |
| 20260503213139 | 17 | 311 | 9.7 | 12.9 | 0.00 | 0.00 | 0.00 | 26 | 1012.8 |
| 20260503212637 | 17 | 297 | 11.3 | 12.9 | 0.00 | 0.00 | 0.00 | 26 | 1012.5 |
| 20260503212134 | 17 | 22 | 1.6 | 3.2 | 0.00 | 0.00 | 0.00 | 28 | 1012.6 |
| 20260503211632 | 17 | 295 | 6.4 | 11.3 | 0.00 | 0.00 | 0.00 | 26 | 1012.5 |
| 20260503211127 | 17 | 32 | 6.4 | 11.3 | 0.00 | 0.00 | 0.00 | 26 | 1012.6 |
| 20260503210624 | 17 | 5 | 1.6 | 3.2 | 0.00 | 0.00 | 0.00 | 26 | 1012.6 |
| 20260503210120 | 17 | 262 | 3.2 | 3.2 | 0.00 | 0.00 | 0.00 | 28 | 1012.6 |
| 20260503205616 | 17 | 221 | 11.3 | 14.5 | 0.00 | 0.00 | 0.00 | 26 | 1012.6 |
| 20260503205112 | 17 | 357 | 4.8 | 6.4 | 0.00 | 0.00 | 0.00 | 29 | 1012.6 |
| 20260503204609 | 17 | 36 | 3.2 | 3.2 | 0.00 | 0.00 | 0.00 | 28 | 1012.7 |
| 20260503204107 | 17 | 11 | 6.4 | 9.7 | 0.00 | 0.00 | 0.00 | 27 | 1012.7 |
| 20260503203603 | 17 | 354 | 1.6 | 3.2 | 0.00 | 0.00 | 0.00 | 30 | 1013.0 |
| 20260503203101 | 17 | 353 | 8.0 | 14.5 | 0.00 | 0.00 | 0.00 | 27 | 1013.0 |